Regional Weather Roundup
Issued by NWS

Home | Current Version | Previous Version | Text Only | Print | Product List | Glossary Off
Versions: 1 2 3 4 5 6 7 8 9 10 11 12 13 14 15 16 17 18 19 20 21 22 23 24 25 26 27 28 29 30 31 32 33 34 35 36 37 38 39 40 41 42 43 44 45 46 47 48 49 50

000
ASUS45 KABQ 221410
RWRNM
WEATHER ROUNDUP FOR NEW MEXICO
NATIONAL WEATHER SERVICE ALBUQUERQUE NM
700 AM MST SAT NOV 22 2014

NOTE: "FAIR" MEANS FEW OR NO CLOUDS BELOW 12,000 FEET AGL WITH NO
       SIGNIFICANT WEATHER OR OBSTRUCTIONS TO VISION.

      THIS PRODUCT IS RELEASED AS TWO VERSIONS.  ONE VERSION NEAR
      THE TOP OF THE HOUR CONTAINING PRELIMINARY DATA FROM ALBUQUERQUE
      AND OTHER STATIONS.  A FINAL VERSION WITH ADDITIONAL DATA IS
      ISSUED ABOUT 10 MINUTES AFTER THE HOUR.

NMZ501-503-504-510>518-221500-
NORTHWEST PLATEAU/NORTHCENTRAL MOUNTAINS

CITY           SKY/WX    TMP DP  RH WIND       PRES   REMARKS
FARMINGTON     CLEAR     21  17  84 E6        30.12R WCI  13
LOS ALAMOS     CLEAR     31  19  62 CALM      30.10S
SANTA FE       PTCLDY    26  20  77 N15       30.08R WCI  14
TAOS           PTCLDY    18  12  79 N5        30.11F WCI  11
ANGEL FIRE     FAIR      -3  -8  79 CALM      30.11S

$$
NMZ402-403-502-505>509-221500-
WESTCENTRAL MOUNTAINS/SOUTHWEST MOUNTAINS

CITY           SKY/WX    TMP DP  RH WIND       PRES   REMARKS
GALLUP         MOCLDY    14   8  77 CALM      30.14S
GRANTS         MOCLDY    14  10  85 NW7       30.15S WCI   4
SILVER CITY    CLEAR     34  23  64 N10       30.10R WCI  26

$$
NMZ407-409-411-412-221500-
SOUTHERN DESERTS

CITY           SKY/WX    TMP DP  RH WIND       PRES   REMARKS
LORDSBURG      FAIR      28  19  69 CALM      30.08R
DEMING         CLEAR     35  26  69 NW6       30.06R WCI  30
LAS CRUCES     CLEAR     41  25  53 CALM      30.07R
HOLLOMAN AFB   PTCLDY    36  25  63 NE6       30.04R WCI  31
ALAMOGORDO     MOCLDY    39  25  56 CALM      30.05R
T OR C         CLEAR     37  21  52 NW5       30.08R WCI  33

$$
NMZ519>523-221500-
CENTRAL VALLEYS/CENTRAL HIGHLANDS

CITY           SKY/WX    TMP DP  RH WIND       PRES   REMARKS
ALBUQUERQUE    PTCLDY    32  19  58 N5        30.10R WCI  27
MORIARTY ARPT  FAIR      20  17  87 CALM      30.10R
CLINES CORNERS PTCLDY    29  20  69 NW15      30.06R WCI  18
BELEN          FAIR      25  16  68 NE3       30.11R
SOCORRO        FAIR      32  19  57 NW7       30.10R WCI  26

$$
NMZ524>526-539-540-221500-
SOUTHCENTRAL MOUNTAINS

CITY           SKY/WX    TMP DP  RH WIND       PRES   REMARKS
RUIDOSO        CLEAR     37  21  52 W9        30.10S WCI  31

$$
NMZ527>531-221500-
NORTHEAST HIGHLANDS/NORTHEAST PLAINS

CITY           SKY/WX    TMP DP  RH WIND       PRES   REMARKS
LAS VEGAS      CLEAR     32  14  47 NW6       30.02S WCI  26
RATON          CLEAR     21  17  84 NE6       29.98F WCI  13
CLAYTON        PTCLDY    37  19  48 W12       29.92F WCI  29

$$
NMZ532>537-221500-
EASTCENTRAL PLAINS

CITY           SKY/WX    TMP DP  RH WIND       PRES   REMARKS
TUCUMCARI      CLEAR     35  24  64 W10       29.97S WCI  27
CANNON AFB     CLEAR     41  38  90 W7        29.99F
CLOVIS AIRPORT CLOUDY    39  37  93 CALM      29.99S VSB<1/4

$$
NMZ028-029-538-221500-
SOUTHEAST PLAINS

CITY           SKY/WX    TMP DP  RH WIND       PRES   REMARKS
ROSWELL        MOCLDY    45  30  55 N3        30.00S
CARLSBAD       MOCLDY    48  40  73 W10       29.98S
HOBBS          LGT RAIN  52  52 100 NW6       30.01S


$$


USA.gov is the U.S. government's official web portal to all federal, state and local government web resources and services.